WetterOnline ( http://www.wetteronline.de )

Wetter aktuell Bremerhaven

Aktuelles Wetter: Bremerhaven (11m)

6-stündlich | Neueste Meldungen
Ortszeit Temperatur Wetter
So, 23.09. 14:00 12.9° C bewölkt
So, 23.09. 8:00 10.7° C bedeckt
So, 23.09. 2:00 11.2° C leicht bewölkt
Sa, 22.09. 20:00 13.1° C wolkig
Sa, 22.09. 14:00 14.4° C leicht bewölkt
Sa, 22.09. 8:00 11.4° C wolkenlos
Sa, 22.09. 2:00 11.6° C wolkig
Fr, 21.09. 20:00 13.9° C leicht bewölkt
Ortszeit Temperatur Wetter
So, 23.09. 16:00 11.9° C leichter Regen
So, 23.09. 15:50 11.9° C leichter Regen
So, 23.09. 15:40 11.7° C bewölkt
So, 23.09. 15:30 10.4° C leichter Regen
So, 23.09. 15:20 10.4° C leichter Regen
So, 23.09. 15:10 10.3° C Regen
So, 23.09. 15:00 10.5° C Regen
So, 23.09. 14:30 12.6° C leicht bewölkt
So, 23.09. 14:00 12.9° C bewölkt
So, 23.09. 13:30 12.8° C leicht bewölkt
So, 23.09. 13:00 12.8° C leicht bewölkt
Ortszeit Relative Feuchte Sichtweite
So, 23.09. 14:00 81% 10 km
So, 23.09. 8:00 96% 9 km
So, 23.09. 2:00 94% 10 km
Sa, 22.09. 20:00 79% 10 km
Sa, 22.09. 14:00 76% 9 km
Sa, 22.09. 8:00 90% 9 km
Sa, 22.09. 2:00 88% 10 km
Fr, 21.09. 20:00 56% 9 km
Ortszeit Relative Feuchte Sichtweite
So, 23.09. 16:00 77% 10 km
So, 23.09. 15:50 77% -
So, 23.09. 15:40 80% -
So, 23.09. 15:30 81% 10 km
So, 23.09. 15:20 81% -
So, 23.09. 15:10 82% -
So, 23.09. 15:00 79% 10 km
So, 23.09. 14:30 84% 9 km
So, 23.09. 14:00 81% 10 km
So, 23.09. 13:30 81% 9 km
So, 23.09. 13:00 83% 10 km
Ortszeit Niederschlagsmenge Niederschlagsart
So, 23.09. 14:00 0.0 l/m2 in 6 Std. -
So, 23.09. 8:00 0.0 l/m2 in 12 Std. -
So, 23.09. 2:00 0.0 l/m2 in 6 Std. -
Sa, 22.09. 20:00 2 l/m2 in 12 Std. Regen
Sa, 22.09. 14:00 1 l/m2 in 6 Std. Regenschauer
Sa, 22.09. 8:00 1 l/m2 in 12 Std. Regen
Sa, 22.09. 2:00 0.1 l/m2 in 6 Std. Regen
Fr, 21.09. 20:00 3 l/m2 in 12 Std. Regen
Ortszeit Niederschlagsmenge Niederschlagsart
So, 23.09. 16:00 1.9 l/m2 in 1 Std. Regen
So, 23.09. 15:50 keine Meldung -
So, 23.09. 15:40 keine Meldung -
So, 23.09. 15:30 1.8 l/m2 in 1 Std. -
So, 23.09. 15:20 keine Meldung -
So, 23.09. 15:10 keine Meldung -
So, 23.09. 15:00 0.1 l/m2 in 1 Std. Regen
So, 23.09. 14:30 0.0 l/m2 in 1 Std. -
So, 23.09. 14:00 0.0 l/m2 in 1 Std. -
So, 23.09. 13:30 0.0 l/m2 in 1 Std. -
So, 23.09. 13:00 0.0 l/m2 in 1 Std. -
Ortszeit Stärke Spitze Richtung
km/h Bft. km/h Grad Sektor
So, 23.09. 14:00 9 2 26 260° W
So, 23.09. 8:00 19 3 39 230° SW
So, 23.09. 2:00 25 4 40 240° SW
Sa, 22.09. 20:00 25 4 54 240° SW
Sa, 22.09. 14:00 33 5 57 240° SW
Sa, 22.09. 8:00 35 5 48 230° SW
Sa, 22.09. 2:00 35 5 67 240° SW
Fr, 21.09. 20:00 47 6 72 250° W
Ortszeit Stärke Spitze Richtung
km/h Bft. km/h Grad Sektor
So, 23.09. 16:00 19 3 41 300° NW
So, 23.09. 15:50 19 3 - 300° NW
So, 23.09. 15:40 9 2 - 320° NW
So, 23.09. 15:30 4 1 40 40° NO
So, 23.09. 15:20 4 1 - 40° NO
So, 23.09. 15:10 7 2 - 40° NO
So, 23.09. 15:00 26 4 43 330° NW
So, 23.09. 14:30 9 2 15 240° SW
So, 23.09. 14:00 9 2 13 260° W
So, 23.09. 13:30 7 2 11 250° W
So, 23.09. 13:00 9 2 13 250° W
Ortszeit Untergrenze Bedeckung Gattung
total tief tief mittel hoch
So, 23.09. 14:00 990 m 7/8 7/8 - - -
So, 23.09. 8:00 120 m 8/8 8/8 - - -
So, 23.09. 2:00 450 m 2/8 2/8 - - -
Sa, 22.09. 20:00 1500 m 8/8 2/8 - - -
Sa, 22.09. 14:00 1290 m 5/8 3/8 - - -
Sa, 22.09. 8:00 - 0/8 0/8 - - -
Sa, 22.09. 2:00 390 m 7/8 1/8 - - -
Fr, 21.09. 20:00 1410 m 4/8 1/8 - - -
Ortszeit Bedeckungsgrad in Achtel und Wolkenuntergrenze
So, 23.09. 16:00 4(1110m) 7(1410m) 7(1800m)
So, 23.09. 15:50 4(1110m) 7(1410m) 7(1800m)
So, 23.09. 15:40 2(1140m) 7(1410m) 7(1800m)
So, 23.09. 15:30 2(1080m) 6(1290m) 7(1500m)
So, 23.09. 15:20 2(1080m) 6(1290m) 7(1500m)
So, 23.09. 15:10 9 9 9
So, 23.09. 15:00 1(330m) 7(1170m) 7(1500m)
So, 23.09. 14:30 1(330m) 3(1110m) 4(1800m)
So, 23.09. 14:00 2(990m) 7(2400m)
So, 23.09. 13:30 4(2400m)
So, 23.09. 13:00 2(2400m)
Ortszeit Luftdruck NN (hPa) Tendenz (hPa in 3 Std.)
So, 23.09. 14:00 1011 - 1,3
So, 23.09. 8:00 1013 - 0,8
So, 23.09. 2:00 1015 - 0,5
Sa, 22.09. 20:00 1015 - 0,4
Sa, 22.09. 14:00 1016 + 0,4
Sa, 22.09. 8:00 1015 + 1,7
Sa, 22.09. 2:00 1010 + 1,5
Fr, 21.09. 20:00 1007 + 1,9
Ortszeit Luftdruck NN (hPa) Tendenz (hPa in 3 Std.)
So, 23.09. 16:00 1010 - 1,6
So, 23.09. 15:50 1010 keine Meldung
So, 23.09. 15:40 1010 keine Meldung
So, 23.09. 15:30 1010 - 1,9
So, 23.09. 15:20 1010 keine Meldung
So, 23.09. 15:10 1010 keine Meldung
So, 23.09. 15:00 1011 - 1,4
So, 23.09. 14:30 1011 - 1,2
So, 23.09. 14:00 1011 - 1,3
So, 23.09. 13:30 1011 - 1,8
So, 23.09. 13:00 1012 - 1,1
Ortszeit Schneehöhe (cm)
So, 23.09. 14:00 -
So, 23.09. 8:00 -
So, 23.09. 2:00 -
Sa, 22.09. 20:00 -
Sa, 22.09. 14:00 -
Sa, 22.09. 8:00 -
Sa, 22.09. 2:00 -
Fr, 21.09. 20:00 -
Ortszeit Schneehöhe (cm)
So, 23.09. 16:00 -
So, 23.09. 15:50 -
So, 23.09. 15:40 -
So, 23.09. 15:30 -
So, 23.09. 15:20 -
So, 23.09. 15:10 -
So, 23.09. 15:00 -
So, 23.09. 14:30 -
So, 23.09. 14:00 -
So, 23.09. 13:30 -
So, 23.09. 13:00 -
Link zu dieser Seite / Seite empfehlen

Das Wetter in ...